Flag for Sweden Weather past 2 weeks in Gävle, Sweden

Now
56 °F

Rain showers. Overcast.


Feels Like: 56 °F
Forecast: 51 / 67 °F
Wind: 1 mph from Northwest

Location: Films Kyrkby

Current Time: Jul 30, 2015 at 10:57:14 PM

Latest Report: Jul 30, 2015 at 10:00 PM


Visibility: 12 mi

Pressure: 29.50 "Hg

Humidity: 98%

Dew point: 55 °F

Location of GävleLocation

Historic Weather in Gävle — Graph

°F

Gävle temperature yesterday

Maximum temperature yesterday: 68 °F (at 1:00 PM)
Minimum temperature yesterday: 56 °F (at 4:00 AM)
Average temperature yesterday: 61 °F

Past Weeks' High & Low Weather Summary

 TemperatureHumidityPressure
High71 °F (Jul 26, 3:00 PM)100% (Jul 16, 3:00 AM)29.96 "Hg (Jul 16, 3:00 AM)
Low46 °F (Jul 21, 4:00 AM)38% (Jul 24, 6:00 PM)29.29 "Hg (Jul 26, 5:00 PM)
Average59 °F82%29.65 "Hg
* Reported Jul 15 9:00 PM — Jul 30 9:00 PM, Gävle, Weather by CustomWeather, © 2015

Note: Actual official high and low records may vary slightly from our data, if they occured in-between our weather recording intervals... More about our weather records

Advertising

Gävle weather history for previous 24 hours

 ConditionsComfort  
Time TempWeatherWind HumidityBarometerVisibility
9:00 PM
Thu, Jul 30
56 °FRain showers. Overcast.1 mph97%29.50 "Hg9 mi
8:00 PM58 °FOvercast.1 mph95%29.47 "Hg19 mi
7:00 PM60 °FRain showers. Overcast.1 mph95%29.47 "Hg11 mi
6:00 PM59 °FRain showers. Partly sunny.No wind95%29.47 "Hg19 mi
5:00 PM59 °FRain showers. Partly sunny.2 mph94%29.44 "Hg6 mi
4:00 PM62 °FPartly sunny.No wind91%29.44 "Hg22 mi
3:00 PM63 °FPartly sunny.1 mph86%29.41 "Hg25 mi
2:00 PM65 °FScattered clouds.1 mph81%29.41 "Hg19 mi
1:00 PM59 °FOvercast.2 mph89%29.41 "Hg17 mi
12:00 PM61 °FLow clouds.1 mph94%29.41 "Hg15 mi
11:00 AM58 °FRain. Low clouds.1 mph97%29.41 "Hg3 mi
10:00 AM58 °FRain showers. Low clouds.2 mph97%29.38 "Hg6 mi
9:00 AM57 °FRain showers. Low clouds.1 mph98%29.38 "Hg3 mi
8:00 AM58 °FRain showers. Low clouds.No wind98%29.38 "Hg4 mi
7:00 AM57 °FLow clouds.1 mph98%29.38 "Hg5 mi
6:00 AM57 °FRain showers. Low clouds.No wind98%29.38 "Hg3 mi
5:00 AM57 °FDrizzle. Low clouds.1 mph98%29.41 "Hg2 mi
4:00 AM56 °FLight rain. Overcast.1 mph98%29.41 "Hg2 mi
3:00 AM56 °FRain. Passing clouds.No wind98%29.41 "Hg2 mi
2:00 AM57 °FRain. Overcast.No wind98%29.41 "Hg2 mi
1:00 AM57 °FLight rain. Passing clouds.1 mph98%29.44 "Hg6 mi
12:00 AM57 °FOvercast.1 mph96%29.44 "Hg9 mi
11:00 PM
Wed, Jul 29
58 °FLow clouds.No wind95%29.44 "Hg15 mi
10:00 PM58 °FOvercast.1 mph92%29.44 "Hg19 mi
Weather by CustomWeather, © 2015

See weather overviewHow to use our weather pages